Location: Church Tower
(37.7144°N, 119.6316°W)
Time: 18:50:00
(UTC+00:00)

Cosmos 2251 Rocket - Pass Details

Date: 15 November 2025
Orbit: 760 x 788 km, 74.0° (Epoch: 08 December)

Event Time Altitude Azimuth Distance (km) Brightness Sun altitude
Exits shadow 12:59:17 27° 324° (NW) 1,483 4.6 -19.8°
Maximum altitude 13:02:05 57° 256° (WSW) 923 3.6 -19.2°
Drops below altitude 10° 13:07:17 10° 179° (S) 2,338 6.1 -18.2°
Sets 13:09:41 0° 175° (S) 3,260 7.0 -17.7°
